#timestamp,LO_Frequency,Hit,StdDev 
1679259615.4,286046999.4,N
1679259635.3,286046998.5,N
1679259655.1,286047000.5,N
1679259675.9,286047000.4,N
1679259695.7,286047002.0,N
1679259715.6,286047001.4,N
1679259735.4,286047002.7,N
1679259755.2,286047000.6,N
1679259775.1,286047002.7,N
1679259776.0,286047002.7,N
1679259795.8,286047000.1,N
1679259815.6,286047000.8,N
1679259835.5,286047001.0,N
1679259855.3,286046996.6,N
1679259875.2,286046996.5,N
1679259895.9,286046999.0,N
1679259915.7,286046999.2,N
1679259935.6,286047001.1,N
1679259955.4,286047000.0,N
1679259975.2,286047000.4,N
1679259995.1,286047000.3,N
1679259996.0,286047000.3,N
1679260015.8,286046998.3,N
1679260035.7,286047000.7,N
1679260055.5,286047000.7,N
1679260075.3,286046998.6,N
1679260095.2,286046999.8,N
1679260115.0,286047000.1,N
1679260115.9,286047000.1,N
1679260135.7,286047000.7,N
1679260155.6,286047000.5,N
1679260175.4,286046998.4,N
1679260195.3,286047001.1,N
1679260215.1,286046998.2,N
1679260216.0,286046998.2,N
1679260235.8,286047002.3,N
1679260255.7,286047002.3,N
1679260275.5,286047001.4,N
1679260295.3,286047002.0,N
1679260315.2,286047002.6,N
1679260335.0,286047002.8,N
1679260335.9,286047002.8,N
1679260355.8,286047002.5,N
1679260375.6,286047003.8,N
1679260395.4,286047001.8,N
1679260415.3,286046999.7,N
1679260435.1,286046998.3,N
1679260455.8,286047001.0,N
1679260475.7,286046999.8,N
1679260495.5,286047000.2,N
1679260515.4,286046999.9,N
1679260535.2,286046999.7,N
1679260555.0,286047002.5,N
1679260555.9,286047002.5,N
1679260575.8,286047002.7,N
1679260595.6,286047002.6,N
1679260615.5,286047003.4,N
1679260635.3,286047001.7,N
1679260655.1,286047002.7,N
1679260675.9,286046998.7,N
1679260695.7,286047002.8,N
1679260715.5,286047000.3,N
1679260735.4,286047002.4,N
1679260755.2,286047002.3,N
1679260775.0,286047003.7,N
1679260776.0,286047003.7,N
1679260795.8,286047005.5,Y
1679260815.6,286047002.8,P
1679260835.5,286047000.5,N
1679260855.3,286047000.5,N
1679260875.2,286047000.3,N
1679260895.9,286047000.6,N
1679260915.7,286047000.7,N
1679260935.6,286047000.9,N
1679260955.4,286047000.4,N
1679260975.2,286047000.9,N
1679260995.1,286047000.3,N
1679260996.0,286047000.3,N
1679261015.8,286047002.7,Y
1679261035.7,286047000.9,P
1679261055.5,286047000.3,P
1679261075.3,286046998.7,P
1679261095.2,286046998.2,N
1679261115.0,286046998.8,N
1679261115.9,286046998.8,N
1679261135.8,286047001.2,N
1679261155.6,286047000.7,N
1679261175.4,286047002.6,N
1679261195.3,286047000.0,N
1679261215.1,286046999.9,N
1679261216.0,286046999.9,N
1679261235.8,286047001.2,N
1679261255.7,286046998.3,N
1679261275.1,286046996.5,N
1679261295.9,286046997.0,N
1679261315.7,286046998.3,N
1679261335.6,286046998.4,N
1679261355.4,286046998.9,N
1679261375.2,286046999.4,N
1679261395.1,286046999.6,N
1679261396.0,286046999.6,N
1679261415.8,286046999.3,N
1679261435.7,286046998.1,N
1679261455.5,286046998.4,N
1679261475.3,286046999.4,N
1679261495.2,286046999.3,N
1679261515.0,286046999.3,N
1679261515.9,286046999.3,N
1679261535.8,286046999.2,N
1679261555.6,286046995.0,Y
1679261575.4,286046996.7,P
1679261595.3,286046997.3,N
1679261615.1,286046998.9,N
1679261635.9,286046998.1,N
1679261655.7,286047001.2,N
1679261675.5,286046999.0,N
1679261695.4,286047000.9,N
1679261715.2,286047000.2,N
1679261735.1,286047002.5,N
1679261736.0,286047002.5,N
1679261755.8,286047002.6,N
1679261775.6,286047002.2,N
1679261795.5,286047001.2,N
1679261815.3,286046996.6,N
1679261835.2,286046996.5,N
1679261855.9,286046996.7,N
1679261875.7,286046997.7,N
1679261895.6,286046999.2,N
1679261915.4,286046999.4,N
1679261935.3,286046998.1,N
1679261955.1,286047001.0,N
1679261956.0,286047001.0,N
1679261975.8,286047000.2,N
1679261995.7,286047002.0,N
1679262015.5,286047001.6,N
1679262035.3,286047002.4,N
1679262055.2,286046999.9,N
1679262075.0,286047000.9,N
1679262075.9,286047000.9,N
1679262095.8,286047001.0,N
1679262115.6,286047001.1,N
1679262135.4,286047001.2,N
1679262155.3,286046998.5,N
1679262175.1,286047000.7,N
1679262195.9,286047002.7,N
1679262215.7,286047003.7,N
1679262235.5,286047004.0,N
1679262255.4,286047001.8,N
1679262275.2,286047001.9,N
1679262295.1,286046999.7,N
1679262296.0,286046999.7,N
1679262315.8,286047000.0,N
1679262335.6,286047000.3,N
1679262355.5,286047001.1,N
1679262375.3,286047001.1,N
1679262395.1,286047002.8,N
1679262415.9,286047000.6,N
1679262435.7,286047000.4,N
1679262455.6,286046999.7,N
1679262475.4,286047002.6,N
1679262495.2,286047002.8,N
1679262515.1,286046999.9,N
1679262516.0,286046999.9,N
1679262535.8,286047000.3,N
1679262555.7,286047000.3,N
1679262575.5,286047000.0,N
1679262595.3,286046999.7,N
1679262615.2,286047001.9,N
1679262635.0,286047002.8,N
1679262635.9,286047002.8,N
1679262655.8,286047002.8,N
1679262675.6,286047000.0,N
1679262695.4,286047002.1,N
1679262715.3,286047002.2,N
1679262735.1,286047000.4,N
1679262755.8,286047000.9,N
1679262775.7,286046998.1,N
1679262795.5,286046999.9,N
1679262815.3,286046998.5,N
1679262835.2,286046998.1,N
1679262855.0,286046998.4,N
1679262855.9,286046998.4,N
1679262875.8,286046996.5,N
1679262895.6,286046996.6,N
1679262915.4,286046996.6,N
1679262935.3,286047000.4,N
1679262955.1,286046999.7,N
1679262975.8,286046999.7,N
1679262995.7,286047001.2,N
1679263015.5,286047002.0,N
1679263035.4,286047002.5,N
1679263055.2,286047001.2,N
1679263075.0,286047000.5,N
1679263075.9,286047000.5,N
1679263095.8,286047001.6,N
1679263115.6,286047002.5,N
1679263135.5,286046998.8,N
1679263155.3,286047001.0,N
1679263175.1,286046996.5,N
1679263195.9,286046999.1,N
